{"data":{"norad_id":28129,"epoch":"2026-05-23T03:17:21.012864Z","epoch_age_seconds":250093,"freshness":"STALE","line1":"1 28129U 03058A   26143.13704876 -.00000108  00000+0  00000+0 0  9998","line2":"2 28129  55.0124  24.1941 0002290 335.6997  24.3271  1.92678417163988","mean_motion":1.92678417,"eccentricity":0.000229,"inclination_deg":55.0124,"raan_deg":24.1941,"arg_perigee_deg":335.6997,"mean_anomaly_deg":24.3271,"bstar":0,"rev_number":16398,"period_min":747.35926442659,"perigee_km":20895.747484734,"apogee_km":20908.241785023,"semimajor_km":27280.131634878,"source":"CELESTRAK","updated_at":"2026-05-25T13:37:55.057041Z"}}